THOR ABLESTAR R/B, 1508

Orbit data source: Space-Track

THOR ABLESTAR R/B, 1508 is space debris in LEO originally from a launch on Fri, 13 Aug 1965 UTC launched from the Air Force Western Test Range (AFWTR). Debris objects in space refer to the collection of defunct objects orbiting the Earth. Examples of debris include non-operational satellites, rocket bodies, and fragments generated from explosions, collisions, or faulty payload assembly.

Loading next visibility...
Identifier
1508, 1965-065B
Orbit
LEO
Last TLE update
11 hours ago
Origin
Manufacturer
Aerojet
Mission
Spacecraft
Bus & Motor
ABLESTAR, Unknown motor
Mass
~600 kg wet, 600 kg dry
Launch date (UTC)
1965-08-13 (60 years ago)
Launch vehicle
Unknown
Launch site
Air Force Western Test Range (AFWTR)
Object type
Payload
Rocket body
Debris
Shape & HBR
Cyl, 4.8 m
Radar Cross Section
6.048 m², Large (>1 m²)

Expand to show TLE details & history

TLE from 11 hours ago
0 THOR ABLESTAR R/B
1 01508U 65065B   25189.83982840  .00000025  00000-0  33065-4 0  9991
2 01508  90.1493 303.0408 0040860 218.5270 259.2641 13.36074122919561
Epoch: 2025-07-08T20:09Z
TLE epoch observation values (Epoch: 2025-07-08T20:09:21.173Z)
Latitude
62.75331°
Longitude
-106.03802°
Altitude
1,140.627 km
Speed
7.285 km/s
True Right ascension
08h 13m 19s
True Declination
62° 37' 13"
Sunlit
Object was in daylight at epoch
Visualization orbit readout
Latitude
-47.46805°
Longitude
-106.48145°
Altitude
1,112.168 km
Speed
7.31 km/s
Apparent Right ascension
07h 55m 23s
Apparent Declination
-43° 53' 36"
Sunlit
Object is in daylight
Visualization observer readout
Local Sidereal Time
19:38:39
Azimuth
216.659° SW
Elevation
-84.951°
Doppler factor
1
Orbital elements
Apogee altitude
1,151.651 km
Perigee altitude
1,090.368 km
Semi-major axis
7,499.146 km
Eccentricity
0.00409
Inclination
90.1493°
RAAN
303.0408°
Arg. of periapsis
218.527°
True anomaly
Unknown
Mean anomaly
259.2641°
Eccentric anomaly
Unknown
Mean motion
3.34215 °/min
Orbital period
107.72 mins
BSTAR
0.000033065
Loading maneuver chart data...
Loading SW <> Apogee altitude chart data...
Loading historical data...
Loading historical data...
Loading historical data...
Loading historical data...
Loading historical data...
Loading historical data...
Loading historical data...

THOR ABLESTAR R/B Visibility forecast

Observer location: undefined°, undefined°

Span
Click to sort rows by Start time (UTC) header in descending order
Start Az.
Max El. time (UTC)
Max El. Az.
Max El.
End time (UTC)
End Az.
13 mins2025-07-09 08:14:09.593Z187.342° SSW2025-07-09 08:21:09.593Z283.624° WNW42.572°2025-07-09 08:27:09.593Z351.193° N
11 mins2025-07-09 19:33:09.593Z13.405° NNE2025-07-09 19:38:09.593Z90.38° ESE41.476°2025-07-09 19:44:09.593Z168.719° S
8 mins2025-07-09 21:21:09.593Z327.25° NNW2025-07-09 21:25:09.593Z286.357° WNW20.396°2025-07-09 21:29:09.593Z246.142° WSW
|